Inquirer Daily News

Weather

Get conditions and forecasts for any City, State, ZIP code or Country:  
Trenton, NJ
on Friday, February 22, 2013

Friday
Previous Day Next Day
Daily Summary
 ActualAverageRecord
Temperature
Mean Temperature °F 35°F  
Max Temperature 37°F 44°F 66°F (1997)
Min Temperature 22°F 27°F 8°F (1963)
Degree Days
Heating Degree Days 35 30  
Month to date heating degree days 742 695  
Since 1 July heating degree days 3450 3641  
Cooling Degree Days 0 0  
Month to date cooling degree days 0 0  
Year to date cooling degree days 0 0  
Moisture
Dew Point 22°F   
Average Humidity 67    
Maximum Humidity 82    
Minimum Humidity 52    
Precipitation
Precipitation T in 0.09 in 1.84 in (2003)
Month to date precipitation 1.14 1.75  
Year to date precipitation 3.96 4.91  
Wind
Wind Speed 5 mph   
Max Wind Speed 12 mph   
Max Gust Speed 15 mph   
Visibility 10 miles   
Events     

Key: T is trace of precipitation, MM is missing value
Source: NWS Daily Summary
Time(EST)TemperatureDew PointHumidity Pressure Visibility Wind DirectionWind SpeedGust SpeedPrecipitationEvents Conditions
12:53 AM 23.0°F 12.9°F 65% 30.27 in 10.0 miles North 10.4 mph - N/A   Clear
1:53 AM 23.0°F 12.9°F 65% 30.28 in 10.0 miles North 6.9 mph - N/A   Clear
2:53 AM 21.9°F 12.9°F 68% 30.30 in 10.0 miles North 5.8 mph - N/A   Clear
3:53 AM 21.9°F 12.9°F 68% 30.31 in 10.0 miles North 5.8 mph - N/A   Clear
4:53 AM 21.9°F 14.0°F 72% 30.32 in 10.0 miles Calm Calm - N/A   Clear
5:53 AM 21.9°F 14.0°F 72% 30.36 in 10.0 miles NNW 3.5 mph - N/A   Clear
6:53 AM 23.0°F 15.1°F 72% 30.35 in 10.0 miles NE 5.8 mph - N/A   Clear
7:53 AM 25.0°F 16.0°F 69% 30.38 in 10.0 miles North 3.5 mph - N/A   Clear
8:53 AM 27.0°F 17.1°F 66% 30.40 in 10.0 miles NNE 3.5 mph - N/A   Clear
9:53 AM 30.9°F 19.0°F 61% 30.36 in 10.0 miles East 6.9 mph - N/A   Clear
10:53 AM 33.1°F 19.9°F 59% 30.36 in 10.0 miles East 8.1 mph - N/A   Clear
11:53 AM 34.0°F 21.0°F 59% 30.35 in 10.0 miles ESE 5.8 mph - N/A   Clear
12:53 PM 36.0°F 21.9°F 57% 30.31 in 10.0 miles SE 8.1 mph - N/A   Clear
1:53 PM 37.0°F 21.9°F 54% 30.30 in 10.0 miles ESE 4.6 mph - N/A   Clear
2:53 PM 37.0°F 23.0°F 57% 30.29 in 10.0 miles South 4.6 mph - N/A   Overcast
3:53 PM 37.0°F 23.0°F 57% 30.29 in 10.0 miles SSE 8.1 mph - N/A   Overcast
4:53 PM 36.0°F 25.0°F 64% 30.29 in 10.0 miles SSE 6.9 mph - N/A   Overcast
5:53 PM 35.1°F 25.0°F 67% 30.28 in 10.0 miles SE 6.9 mph - N/A   Overcast
6:53 PM 35.1°F 26.1°F 70% 30.29 in 10.0 miles SSE 6.9 mph - N/A   Overcast
7:38 PM 35.6°F 26.6°F 70% 30.31 in 10.0 miles SSE 4.6 mph - N/A   Overcast
7:53 PM 35.1°F 27.0°F 72% 30.30 in 10.0 miles SE 5.8 mph - N/A   Overcast
8:53 PM 34.0°F 27.0°F 75% 30.28 in 10.0 miles ESE 3.5 mph - N/A   Overcast
9:37 PM 33.8°F 26.6°F 75% 30.28 in 10.0 miles Calm Calm - N/A   Overcast
9:53 PM 34.0°F 28.0°F 79% 30.27 in 10.0 miles Calm Calm - N/A   Overcast
10:17 PM 33.8°F 28.4°F 81% 30.28 in 10.0 miles Calm Calm - N/A   Overcast
10:48 PM 33.8°F 28.4°F 81% 30.27 in 10.0 miles Calm Calm - N/A   Overcast
10:53 PM 34.0°F 28.0°F 79% 30.26 in 10.0 miles Calm Calm - N/A   Overcast
11:42 PM 33.8°F 28.4°F 81% 30.25 in 9.0 miles East 3.5 mph - 0.00 in   Overcast
11:53 PM 34.0°F 28.9°F 82% 30.24 in 10.0 miles East 3.5 mph - 0.00 in   Overcast
Astronomy
Sunrise:06:42 AM (EST) Moon Rise:02:52 PM (EST)2/22
Sunset:05:43 PM (EST) Moon Set:04:26 AM (EST)2/22
Moon Phase
Feb. 22 Feb. 25 Mar. 04 Mar. 11 Mar. 19

Copyright © 2014 The Weather Underground, Inc.